Dewpoint
71 69 69 69 71 74 73 69 58 61 61 56 58 60 58 61 60 60 59 61 60 60 66 64 56 57 58 56 57 58 58 59 60 53 55 66 70 69 68 69 70 70 70 70 72 74 74 74 76 76 77 77 77 77 77 77 77 76 77 77 76 77 77 77 77 77 77 77 76 76 76 76 76 76 75 75 75 75 76 75 75 75 75 75 74 75 75 75 74 75 75 74 74 74 74 74 74
70 69 69 70 70 72 65 69 60 58 57 56 59 58 56 60 62 59 58 62 61 61 65 58 56 56 56 57 59 59 60 62 62 63 65 67 68 68 68 70 71 70 69 70 71 74 75 75 75 76 76 77 77 77 77 77 77 76 77 77 77 77 77 77 77 77 76 76 76 76 76 76 76 76 75 75 75 75 75 75 75 75 75 75 74 74 74 74 75 75 75 75 74 74 75 74 74
69 70 71 71 72 70 69 67 56 57 54 54 55 57 59 58 56 57 60 63 59 62 63 55 57 57 57 58 58 60 58 62 62 64 65 67 66 67 69 69 70 71 71 70 72 72 75 76 77 77 77 77 77 77 77 77 77 77 77 77 77 77 77 77 77 76 76 76 76 76 75 75 75 75 75 75 75 75 75 75 75 75 75 75 75 75 74 75 75 74 74 74 74 74 74 75 75
70 72 71 71 67 70 65 63 59 57 52 55 57 57 60 57 54 58 60 62 55 57 58 56 56 58 58 58 58 59 58 61 63 64 65 66 66 67 68 70 72 71 70 71 71 72 74 76 77 77 77 77 76 77 77 77 77 77 77 77 77 77 77 76 76 76 75 75 75 76 75 75 75 75 75 75 75 75 75 75 75 75 75 75 76 75 74 74 75 75 75 75 74 74 74 74 75
72 73 73 71 68 64 62 59 60 58 55 56 56 57 56 59 56 57 55 58 56 58 57 57 57 59 59 59 60 58 58 62 63 64 65 65 66 67 67 70 70 70 70 70 71 72 74 77 77 77 77 76 76 77 77 77 77 77 77 77 77 77 77 76 76 75 75 76 76 75 75 75 75 75 75 75 75 75 75 75 75 75 75 75 75 75 75 75 75 75 75 75 74 74 74 75 75
73 73 73 72 65 69 64 58 56 56 54 58 56 57 58 62 56 57 58 60 57 57 57 58 57 58 57 57 60 58 60 59 64 64 65 65 65 67 68 70 69 69 69 70 71 73 74 77 77 77 77 76 76 77 77 77 77 77 77 77 77 77 76 76 76 76 76 75 75 75 75 75 75 75 75 75 75 75 75 75 75 75 75 75 75 75 75 75 75 75 75 75 74 74 74 74 74
71 70 70 70 67 69 59 57 55 54 52 55 60 56 57 53 58 55 58 56 56 57 58 56 58 58 57 59 60 60 61 62 63 64 65 67 68 67 67 67 68 69 70 71 72 74 75 77 77 76 76 76 77 77 77 77 77 77 77 77 77 77 76 76 76 76 76 76 76 75 75 75 75 75 75 75 75 75 75 75 75 75 75 75 74 75 75 75 75 75 75 75 75 74 74 74 74
74 69 67 63 61 62 58 57 56 54 51 57 56 53 55 54 54 56 55 54 56 57 58 58 60 58 57 59 57 58 60 63 63 65 67 66 67 68 67 67 67 68 71 72 73 74 77 77 77 76 76 76 76 77 77 77 77 77 77 77 77 77 76 76 76 76 76 76 76 75 75 75 75 75 75 75 75 75 75 74 74 75 75 75 75 75 75 74 75 75 74 74 74 75 74 74 74
70 68 69 63 58 59 57 55 53 52 46 56 48 55 56 54 54 52 57 57 57 57 57 59 59 57 57 59 58 61 61 63 63 67 66 66 67 67 67 68 68 69 71 71 73 75 76 77 76 76 76 76 76 77 77 77 77 77 77 77 77 77 77 76 77 76 76 76 76 76 75 75 75 76 75 75 75 75 75 75 75 75 75 75 74 75 75 75 74 74 74 74 74 75 75 74 74
69 68 63 61 59 55 56 54 53 54 54 48 49 48 53 59 54 54 53 53 54 58 60 59 59 58 60 59 60 61 61 62 63 64 66 66 66 67 67 67 69 70 70 72 73 74 75 77 77 76 76 76 76 77 77 77 77 77 77 77 77 77 77 76 76 76 76 76 76 76 75 75 75 76 75 75 75 75 75 75 75 75 75 75 75 75 75 74 74 75 74 74 74 74 74 74 74
64 67 65 59 55 53 49 50 49 49 44 46 48 50 49 50 58 54 53 55 54 54 57 59 58 57 58 59 60 62 62 62 63 62 63 65 66 67 67 68 69 70 71 71 72 74 75 75 76 76 76 76 76 76 77 77 77 77 77 77 77 77 77 77 77 76 76 77 76 75 75 75 75 75 75 75 75 75 75 75 75 75 75 75 75 75 74 75 75 75 75 74 74 74 74 75 75
63 64 63 58 56 54 57 54 52 46 44 45 46 48 49 48 48 50 54 55 54 53 54 59 58 60 58 58 60 61 61 60 61 62 63 65 66 67 68 67 68 70 70 71 73 73 74 75 74 76 76 76 77 77 77 77 77 77 77 77 77 77 77 77 77 77 76 76 76 76 75 74 75 75 74 74 75 75 75 75 75 75 75 75 74 74 74 75 75 74 74 74 74 74 75 75 75
61 62 60 58 56 55 52 52 55 50 46 45 53 48 49 48 48 51 50 51 53 55 55 57 60 57 56 59 60 59 59 60 61 62 63 64 65 66 68 68 68 68 69 71 72 72 73 73 73 74 75 76 76 76 77 77 77 77 77 77 77 77 77 77 77 77 76 76 76 76 75 75 75 75 75 75 75 75 75 75 75 75 75 75 74 75 75 75 74 74 74 74 74 75 75 75 75
61 65 60 58 56 54 52 52 43 45 54 48 46 49 49 48 48 49 50 49 51 54 55 56 56 58 58 58 58 59 59 60 61 62 62 63 65 65 66 66 67 68 69 70 71 72 73 72 73 73 75 75 75 76 77 77 77 77 77 77 78 77 77 77 77 77 76 76 76 76 75 75 75 74 75 75 75 75 75 75 75 75 75 75 75 75 75 75 75 75 75 75 75 75 75 75 75
57 59 59 56 55 51 53 47 44 41 40 43 45 47 48 48 48 50 51 49 50 52 54 57 58 58 57 57 57 59 60 60 61 61 62 63 63 65 66 66 66 68 69 69 71 72 71 71 72 74 75 74 75 75 76 76 77 77 77 77 77 77 77 77 77 77 76 76 76 75 75 75 75 74 74 75 75 75 75 75 75 74 74 75 75 74 75 75 75 75 75 75 75 75 75 75 75
57 56 58 55 52 53 50 47 43 41 38 42 45 47 47 49 51 50 50 50 50 52 54 53 56 56 57 58 59 60 60 60 61 62 62 63 64 64 65 65 66 66 67 69 70 70 70 71 72 73 73 74 74 74 75 76 77 77 77 77 77 77 77 77 77 77 76 76 76 76 76 75 75 74 75 75 76 75 74 74 75 75 75 75 75 75 75 75 75 75 75 76 76 75 76 76 76
56 55 53 55 52 51 47 44 40 47 46 41 42 46 45 46 50 50 49 47 48 51 51 52 50 56 57 58 60 60 60 60 62 62 62 64 65 64 67 67 66 67 67 68 70 70 70 70 71 72 72 73 72 73 75 76 76 77 77 77 77 77 77 77 76 77 76 76 76 76 75 74 76 75 75 73 75 74 75 75 75 75 75 75 75 75 75 75 75 75 76 75 76 76 76 76 76
52 53 54 52 52 50 48 48 46 51 45 40 45 46 46 44 43 47 49 49 50 51 50 52 52 54 57 60 60 61 60 60 59 60 62 63 64 64 65 67 66 67 67 68 69 69 69 70 71 71 71 72 72 73 74 75 77 76 76 77 76 77 77 76 76 75 76 76 75 76 76 77 77 77 77 75 75 75 75 75 75 75 75 75 75 75 75 75 76 75 75 75 76 76 76 76 76
50 50 56 53 53 53 54 53 51 50 50 43 44 47 47 45 44 45 49 47 49 49 51 54 54 56 59 59 60 60 60 59 60 61 62 62 63 64 65 66 68 67 67 68 69 69 70 70 71 70 71 72 71 73 72 75 75 76 76 76 76 76 76 76 75 75 75 76 77 74 78 76 75 77 77 75 75 75 75 76 76 76 75 75 75 75 75 75 75 75 76 75 75 76 76 78 77
49 47 55 54 52 54 55 54 52 50 54 60 43 45 47 42 45 46 48 47 49 48 50 54 54 55 57 58 59 60 60 60 61 61 61 63 63 63 65 66 67 68 68 68 68 69 70 70 71 71 71 72 72 72 72 73 73 75 74 74 74 75 75 75 75 76 75 76 74 75 75 76 75 78 75 75 75 74 76 76 76 76 76 76 75 75 75 75 75 76 76 76 76 75 76 74 74
49 47 44 55 54 52 51 51 53 52 54 48 44 44 45 44 44 43 46 46 48 49 51 52 55 56 57 58 58 59 59 59 60 61 61 63 63 63 64 66 67 68 68 69 70 70 70 69 70 71 71 72 72 71 71 70 72 73 72 72 73 74 74 73 74 75 75 76 75 76 74 74 73 75 76 75 75 77 74 76 76 75 76 76 75 76 77 75 75 76 77 76 76 74 75 75 74
47 46 46 55 56 53 54 55 55 55 53 47 44 46 46 47 43 46 44 46 45 48 49 51 56 57 57 58 58 59 59 59 59 60 60 61 63 64 64 66 67 69 69 69 69 70 70 69 69 70 70 72 72 71 70 70 72 71 71 70 72 72 72 72 73 73 73 75 76 71 75 74 75 76 72 73 77 78 75 74 77 76 76 75 75 76 76 76 75 74 75 75 76 73 71 72 70
43 44 47 53 58 59 54 53 59 57 47 57 45 47 48 44 44 46 46 45 49 49 50 51 56 58 58 59 59 59 59 58 59 59 60 60 62 63 64 65 66 67 69 69 70 70 70 69 70 70 70 72 72 71 71 70 69 70 70 70 70 70 71 71 71 71 74 76 75 74 71 71 72 73 74 76 76 76 77 77 77 77 76 76 75 75 75 76 76 75 76 76 76 70 70 72 74
43 43 42 51 49 51 53 52 50 48 46 49 48 48 46 44 45 45 46 45 46 47 50 52 56 58 58 58 59 59 59 59 58 59 60 60 59 63 64 65 66 67 68 69 70 69 71 69 70 70 71 71 72 71 71 71 69 67 68 71 71 70 70 69 68 71 75 75 77 76 74 72 70 71 71 74 74 74 74 77 76 75 75 74 77 74 73 75 76 77 75 75 76 76 70 72 72
41 42 43 46 54 53 54 54 47 47 47 46 43 41 48 44 43 44 45 45 48 51 52 52 53 58 58 58 59 59 59 59 59 59 60 60 60 62 63 65 66 67 67 68 69 70 69 71 70 70 70 72 70 69 69 70 70 68 69 69 70 72 71 70 71 74 74 75 74 77 76 74 71 71 73 71 74 75 75 74 74 74 74 74 75 74 74 76 76 77 78 77 76 76 76 74 74
40 40 41 41 46 56 63 49 47 47 47 46 45 41 41 43 42 42 45 45 47 52 52 52 53 54 57 58 59 59 60 58 59 58 59 60 60 60 61 62 63 65 67 68 69 70 69 70 70 69 70 71 71 67 71 70 71 71 70 72 71 74 72 72 75 72 74 73 73 76 74 74 73 74 74 76 74 75 75 74 75 74 74 76 73 74 76 76 77 76 77 75 74 76 73 77 75
38 39 39 40 40 42 49 49 47 47 46 46 43 41 41 43 45 41 44 45 45 50 52 52 52 54 56 57 58 59 60 59 59 59 59 60 60 60 59 60 63 65 67 67 68 69 69 70 70 71 71 73 71 68 71 72 72 71 71 71 71 72 72 73 73 71 71 71 73 77 78 78 77 71 73 76 76 78 77 76 75 76 76 75 75 74 76 77 76 76 76 76 77 77 75 75 77
37 39 41 41 40 40 42 45 46 46 45 46 44 42 42 40 37 39 45 46 45 49 51 51 51 54 56 57 58 60 60 61 60 60 59 59 59 60 60 61 61 63 67 66 67 69 68 69 69 71 72 73 72 69 72 71 72 71 73 73 71 73 75 72 73 72 74 73 75 76 78 77 78 77 77 75 75 76 76 76 76 76 76 77 76 74 76 76 77 76 78 80 78 78 77 76 75
36 38 38 41 42 41 41 41 45 45 44 44 43 42 41 40 35 41 48 47 46 48 49 50 51 53 56 56 57 60 59 60 60 60 58 60 60 59 59 60 61 63 65 67 68 68 68 68 69 70 70 73 72 69 70 70 71 70 72 72 72 73 73 73 73 72 73 75 78 76 78 77 79 79 80 79 76 76 77 77 77 76 78 77 76 75 76 78 78 76 77 78 78 77 75 75 73
35 39 39 39 39 39 41 41 42 45 45 44 43 39 39 39 38 42 42 45 47 48 50 51 51 52 53 55 57 59 60 59 59 59 59 60 60 59 59 60 61 62 64 66 67 67 67 67 69 69 70 70 72 69 71 70 71 71 72 72 74 73 71 72 72 73 75 76 76 78 77 78 78 78 78 78 76 76 76 77 75 77 78 76 79 80 78 77 77 75 75 76 74 75 72 74 72
36 37 40 39 38 38 38 39 40 41 44 44 43 38 36 36 38 40 42 44 54 49 53 50 51 52 54 53 56 59 59 61 59 59 59 60 60 60 60 60 61 61 63 64 66 67 68 67 67 67 70 70 71 71 71 72 72 70 71 72 72 73 72 71 69 71 73 73 75 76 77 78 77 78 79 78 77 76 75 77 77 77 77 78 79 79 77 77 76 76 77 75 77 76 75 74 73
36 36 36 37 36 37 38 38 38 37 40 42 41 38 36 34 35 39 47 47 53 50 49 51 53 52 53 54 55 58 59 59 58 58 57 60 60 60 60 61 60 61 63 65 66 67 66 66 68 66 68 70 71 72 73 73 72 73 72 72 73 74 72 71 70 69 70 71 73 76 77 78 78 78 78 79 78 75 74 77 77 78 77 79 79 79 77 76 77 74 76 75 77 73 74 73 72
33 34 34 35 35 35 34 33 35 36 37 39 38 35 35 34 35 37 41 45 54 48 50 53 50 52 52 53 56 58 59 59 59 57 57 60 60 60 61 61 62 62 63 64 66 67 68 66 69 66 68 70 71 70 73 74 74 74 74 71 69 74 71 70 71 70 70 71 72 73 76 78 78 78 78 78 78 76 75 76 74 76 78 78 79 78 77 77 75 72 78 77 77 78 73 71 72
31 32 33 34 34 34 32 30 31 34 35 35 36 35 35 34 36 37 37 43 52 45 48 48 49 52 53 55 55 58 58 59 59 60 58 59 61 61 61 65 62 63 64 63 66 66 67 67 68 67 69 70 72 73 74 74 74 75 73 72 74 72 70 69 70 71 70 70 71 74 76 78 78 78 78 78 78 76 76 74 74 79 77 79 79 78 78 75 76 77 77 77 77 79 75 71 70
30 30 31 31 32 29 27 27 29 31 34 33 35 34 34 34 38 38 39 39 51 48 46 47 49 52 54 54 55 57 59 60 60 60 57 59 60 60 61 63 62 63 64 64 66 68 68 69 69 71 70 71 71 74 75 74 75 75 72 73 72 73 74 71 70 69 69 70 68 75 77 77 77 77 77 78 77 77 76 75 76 77 77 79 79 78 77 76 74 76 76 77 77 76 77 72 74
29 31 29 28 27 27 24 27 27 30 32 33 34 34 33 34 35 37 36 38 44 54 47 47 51 50 53 55 55 57 59 59 60 60 58 58 60 60 60 62 63 63 65 66 69 68 69 70 69 72 71 70 73 74 74 72 72 72 71 71 71 72 72 72 71 69 69 69 69 76 77 77 78 78 77 77 77 77 76 76 76 77 78 78 78 76 76 76 76 75 76 73 76 76 76 75 74
28 29 28 26 25 25 25 23 25 30 31 31 32 34 34 33 34 35 37 39 43 43 55 49 49 49 53 55 56 57 59 59 60 60 59 58 59 61 62 63 64 63 67 67 68 68 69 69 69 71 71 72 73 72 72 71 70 71 72 69 69 69 72 72 70 70 68 66 71 73 77 76 77 77 78 77 77 77 77 77 77 77 77 77 78 77 76 75 76 77 78 78 75 75 74 75 72
24 25 26 24 24 23 23 24 25 29 29 31 33 31 33 35 34 34 39 41 41 41 47 53 49 50 54 57 57 58 59 59 60 60 60 60 58 60 61 63 65 63 67 67 67 67 69 67 69 70 71 72 72 72 72 71 72 71 71 70 68 68 71 71 70 71 69 68 76 75 76 76 77 77 77 77 77 77 77 77 77 78 78 78 78 78 78 76 76 76 77 77 76 74 72 68 69
24 23 23 21 21 22 23 23 25 28 29 29 30 32 33 34 34 34 34 35 39 40 42 44 53 52 55 56 57 58 58 58 60 60 61 59 58 59 61 62 62 63 64 66 68 68 70 69 70 71 71 71 72 72 72 72 72 73 71 71 69 68 69 70 69 69 71 68 71 75 75 76 77 77 77 77 76 76 76 76 78 79 78 78 78 78 78 78 78 76 76 76 73 74 75 73 74
26 24 22 19 18 19 20 22 24 24 27 29 31 29 32 34 36 35 34 34 37 36 39 41 52 55 54 57 57 58 58 59 59 60 59 58 58 60 61 62 63 63 65 66 66 69 69 71 72 72 72 71 72 72 73 72 73 74 74 73 71 70 70 71 73 73 72 70 68 71 76 76 76 76 75 75 76 76 77 77 78 78 78 78 79 79 78 77 78 77 76 75 75 70 67 68 68
26 28 23 18 17 17 17 18 19 21 26 28 29 30 30 32 32 33 35 34 33 34 36 40 42 51 55 55 56 57 57 60 61 60 60 61 62 60 61 63 62 63 64 65 66 67 67 70 72 72 73 71 72 73 73 73 74 74 74 74 73 74 74 71 71 71 71 72 69 70 73 76 76 75 75 75 75 76 77 79 78 77 78 79 78 78 78 77 77 76 76 75 74 71 69 68 69
24 26 25 20 16 15 17 17 16 18 23 27 28 29 30 33 32 32 33 33 34 35 37 38 45 46 52 51 55 56 57 62 61 60 61 61 60 61 63 65 62 63 64 66 66 67 69 70 73 73 73 72 72 73 73 73 73 73 73 73 71 71 72 71 70 70 69 70 67 67 71 73 73 74 75 75 75 75 77 78 78 77 79 80 80 78 77 78 77 76 76 76 74 74 71 70 69
26 25 25 21 17 14 15 15 15 18 20 23 27 27 27 31 31 32 34 34 34 36 36 34 41 45 51 49 53 55 56 60 60 60 60 58 60 60 64 65 63 63 64 66 67 69 71 71 73 73 73 73 73 74 74 74 73 73 73 71 71 71 71 72 73 71 71 72 71 70 73 74 75 74 73 75 75 75 77 78 78 78 78 78 79 79 77 75 74 76 76 76 74 76 76 74 68
23 23 19 17 15 15 15 14 13 16 19 18 24 26 27 25 28 33 33 34 34 36 35 36 34 42 38 53 52 55 55 58 60 60 59 59 61 62 63 64 64 62 64 66 67 69 72 73 74 74 74 74 74 74 73 74 73 73 73 72 72 72 70 72 73 74 74 74 72 71 72 74 75 75 74 75 75 75 76 78 79 78 77 77 78 78 77 75 75 76 76 75 77 77 75 75 71
20 16 16 15 14 14 16 14 13 14 14 20 19 22 24 25 29 31 32 33 34 35 32 35 39 40 40 53 53 57 57 58 58 58 59 61 60 61 62 65 64 64 64 66 68 71 73 73 74 74 74 74 74 75 74 74 74 74 74 73 73 73 73 73 74 74 74 75 74 73 74 73 75 75 75 74 75 75 76 78 78 79 77 77 78 77 77 75 76 77 77 76 76 75 75 75 76
17 15 15 12 12 11 11 12 12 14 17 18 20 17 22 24 26 26 30 32 32 33 30 28 38 39 41 48 49 54 54 56 57 59 60 60 64 63 63 63 64 63 64 68 69 70 72 73 74 75 75 74 74 75 74 74 75 75 74 74 73 74 74 73 73 74 75 75 75 74 75 75 74 74 75 75 76 75 76 77 77 77 77 74 76 76 76 76 76 77 76 75 75 74 75 73 74
16 15 12 11 9 9 12 9 13 15 14 18 14 14 11 17 24 24 27 28 30 30 33 32 36 37 40 40 53 49 49 55 58 58 60 62 61 62 63 64 67 67 66 67 68 70 71 72 74 75 75 75 75 75 75 75 74 74 74 74 74 74 74 74 74 75 75 76 75 74 74 76 74 74 73 74 75 75 75 77 75 75 76 76 77 76 76 75 75 76 75 76 76 75 74 72 73
13 11 11 12 13 11 14 11 14 11 9 15 11 12 14 18 22 22 27 29 29 30 31 33 30 35 41 44 40 53 50 51 51 56 58 59 62 62 62 65 67 66 65 66 67 69 72 73 74 74 75 75 75 75 75 74 74 74 74 75 74 74 74 73 74 74 74 75 75 74 75 75 76 75 75 74 73 71 75 76 76 75 76 76 77 76 75 74 73 74 76 77 76 76 74 73 72
12 12 16 12 13 10 12 14 9 6 9 10 5 9 12 16 22 20 20 22 25 31 30 31 28 31 41 39 43 46 52 50 52 57 58 57 60 61 61 66 67 66 66 68 67 68 71 73 74 74 75 75 75 75 75 75 74 74 74 74 74 75 75 74 74 73 75 74 75 74 75 75 76 76 75 74 73 73 76 77 76 76 77 77 77 76 76 77 76 75 76 75 76 75 75 73 73
12 15 17 14 11 9 15 15 18 16 11 8 7 7 8 13 15 18 15 18 23 27 31 30 33 36 42 44 47 44 53 52 53 55 56 58 60 61 63 64 65 66 65 67 68 69 71 72 74 74 75 75 75 75 75 75 75 75 75 74 74 75 75 75 74 73 74 75 75 75 73 74 75 74 74 74 73 73 74 76 77 77 77 77 77 78 77 77 77 77 76 75 74 75 75 73 73
14 14 12 13 15 12 16 15 16 15 17 12 9 9 15 8 15 11 14 16 19 24 25 32 34 36 43 42 45 43 42 57 55 55 52 56 59 61 61 62 65 67 65 66 68 70 72 73 74 75 75 75 75 75 75 75 75 75 74 74 75 75 75 74 74 73 73 75 75 75 75 74 74 74 74 75 75 74 74 75 77 76 76 77 77 77 76 77 77 77 77 75 74 75 75 72 72
15 14 12 11 12 18 15 16 13 13 10 9 13 10 13 14 23 16 13 9 13 16 22 28 33 37 41 43 45 44 42 48 53 54 55 60 61 61 60 61 65 67 68 66 68 71 72 74 75 75 75 75 75 75 75 75 75 75 75 74 75 75 75 75 74 74 74 74 75 75 76 76 75 75 76 76 75 75 75 75 76 76 77 77 77 77 77 76 77 77 78 76 75 74 74 73 72
14 11 10 9 11 11 18 20 13 12 13 14 15 13 10 10 8 8 13 10 12 14 14 17 26 30 43 43 45 44 41 45 52 52 52 59 59 60 61 63 63 66 66 67 69 71 72 74 74 75 76 75 75 75 75 75 75 75 75 74 75 75 75 74 73 74 71 73 75 76 76 75 75 76 75 75 75 75 76 75 75 74 76 77 77 77 77 77 77 77 76 77 75 72 73 73 72
11 8 8 9 11 11 17 14 21 15 11 13 8 10 13 11 14 14 13 14 13 14 14 13 23 29 34 36 41 45 40 42 48 55 57 58 60 63 62 63 64 66 66 67 71 71 72 73 74 75 76 76 75 75 75 75 75 75 75 74 75 75 74 73 73 73 73 73 73 75 75 76 74 73 74 73 74 74 75 76 75 75 76 76 76 76 77 77 78 77 76 77 75 75 74 73 72
12 10 9 7 11 13 19 18 14 16 16 17 15 12 11 14 20 14 14 13 14 19 23 17 15 19 29 31 40 44 43 42 48 53 55 56 56 58 62 59 61 66 69 68 70 70 71 72 73 74 75 75 75 74 75 76 75 74 74 74 74 75 74 73 73 74 73 72 71 73 74 74 74 74 73 75 75 74 74 75 76 76 76 76 76 76 78 78 77 76 76 76 76 76 75 73 73
14 13 10 9 12 14 18 17 21 22 20 18 17 16 15 16 16 14 15 18 20 16 18 15 14 19 26 31 32 45 45 44 45 52 51 49 50 52 59 63 64 66 67 66 66 67 67 70 74 75 75 76 75 74 76 75 75 74 74 75 75 75 75 75 75 74 73 72 72 71 72 72 74 74 73 73 75 73 74 73 74 74 74 75 75 75 77 77 77 76 75 75 75 76 75 74 72
13 12 13 11 11 12 13 13 13 17 21 21 20 15 19 19 14 15 20 21 24 21 22 30 20 19 21 29 33 44 44 44 43 46 51 50 53 58 63 64 64 65 67 67 65 66 67 68 72 73 75 74 74 74 75 75 75 75 75 75 74 75 74 74 74 74 74 73 73 73 72 73 74 74 74 72 73 74 74 74 73 73 73 74 76 75 76 77 77 76 76 75 75 75 74 74 73
12 11 13 13 11 12 12 14 10 9 14 20 17 18 29 11 10 15 18 23 20 22 23 23 19 15 27 31 33 47 44 44 43 42 46 54 58 60 61 64 63 64 65 66 66 66 66 67 70 72 73 74 73 74 75 76 75 74 74 74 74 74 74 73 72 73 73 74 74 74 73 74 73 74 74 72 72 72 74 75 74 74 75 75 76 76 75 76 76 76 75 75 75 76 75 74 73